STARLINK-1301, 45361

Orbit data source: Space-Track

STARLINK-1301, 45361 is a payload satellite owned by SpaceX/Seattle (US) in LEO that was launched on Wed, 18 Mar 2020 UTC via an FALCON 9 launch vehicle from the Air Force Eastern Test Range (AFETR). Payload-class satellites include a variety of spacecraft equipped with specific instruments for various scientific and technological missions. These include communications satellites like Starlink; space stations such as the ISS; scientific satellites like the Hubble; Earth observation satellites from companies like Planet Labs, Umbra, and HawkEye 360; GPS; miniature CubeSats for education and research; and military/defense satellites.

Loading next visibility...
Identifier
45361, 2020-019B
Orbit
LEO
Country
Flag of USUS
Related business
Manufacturer
SpaceX/Seattle
Mission
Partially operational Commercial Communications
Bus & Motor
STARLINK, Unknown motor
Mass
260 kg wet, ~248 kg dry
Launch date (UTC)
2020-03-18 (6 years ago)
Launch vehicle
FALCON 9
Launch site
Air Force Eastern Test Range (AFETR)
Object type
Payload
Rocket body
Debris
Shape & HBR
Box + 1 Pan, 10.1 m
Radar Cross Section
13.562 m², Large (>1 m²)

Expand to show TLE details & history
Last TLE update: 13 hours ago

TLE from 13 hours ago
0 STARLINK-1301
1 45361U 20019B   25308.90259448  .00066417  00000-0  17981-2 0  9992
2 45361  53.0524 343.0232 0002909  25.4619 334.6526 15.37083707311256
Epoch: 2025-11-04T21:39Z
TLE epoch observation values (Epoch: 2025-11-04T21:39:44.163Z)
Latitude
-0.00002°
Longitude
-26.29377°
Altitude
453.833 km
Speed
7.642 km/s
True Right ascension
22h 52m 05s
True Declination
0° 00' 00"
Sunlit
Object was in full shadow at epoch
Visualization orbit readout
Latitude
Unknown
Longitude
Unknown
Altitude
Unknown
Speed
Unknown
Apparent Right ascension
Unknown
Apparent Declination
Unknown
Sunlit
N/A
Visualization observer readout
Local Sidereal Time
06:49:42
Azimuth
Unknown
Elevation
Unknown
Doppler factor
Unknown
Orbital elements
Apogee altitude
457.001 km
Perigee altitude
453.025 km
Semi-major axis
6,833.15 km
Eccentricity
0.00029
Inclination
53.0524°
RAAN
343.0232°
Arg. of periapsis
25.4619°
True anomaly
334.63832°
Mean anomaly
334.6526°
Eccentric anomaly
334.64546°
Mean motion
3.84248 °/min
Orbital period
93.69 mins
BSTAR
0.0017981
Loading maneuver chart data...
Computing Atmospheric mass density...

Documentation

Showing up to 5 results
|